| time (UTC) | temp C | wind direction | speed KPH | gust KPH | rain 1hr cm | rain 24hr cm | rain mn cm | humidity % | barometer mb |
| 20260507114103 | 15 | 0 | 0.0 | 0.0 | 0.00 | 0.00 | 0.00 | 64 | 1021.4 |
| 20260507113103 | 14 | 0 | 0.0 | 0.0 | 0.00 | 0.00 | 0.00 | 68 | 1021.5 |
| 20260507112105 | 13 | 0 | 0.0 | 0.0 | 0.00 | 0.00 | 0.00 | 67 | 1021.5 |
| 20260507111103 | 13 | 0 | 0.0 | 0.0 | 0.00 | 0.00 | 0.00 | 67 | 1021.6 |
| 20260507101104 | 13 | 0 | 0.0 | 0.0 | 0.00 | 0.00 | 0.00 | 71 | 1021.7 |
| 20260507094101 | 13 | 0 | 0.0 | 0.0 | 0.00 | 0.00 | 0.00 | 78 | 1021.6 |
| 20260507092103 | 12 | 0 | 0.0 | 0.0 | 0.00 | 0.00 | 0.00 | 78 | 1021.5 |
| 20260507091102 | 12 | 0 | 0.0 | 0.0 | 0.00 | 0.00 | 0.00 | 81 | 1021.5 |
| 20260507084103 | 11 | 0 | 0.0 | 0.0 | 0.00 | 0.00 | 0.00 | 81 | 1021.3 |
| 20260507083102 | 11 | 0 | 0.0 | 0.0 | 0.00 | 0.00 | 0.00 | 81 | 1021.3 |
| 20260507082058 | 11 | 0 | 0.0 | 0.0 | 0.00 | 0.00 | 0.00 | 84 | 1021.3 |
| 20260507081101 | 10 | 0 | 0.0 | 0.0 | 0.00 | 0.00 | 0.00 | 85 | 1021.2 |
| 20260507075103 | 10 | 0 | 0.0 | 0.0 | 0.00 | 0.00 | 0.00 | 87 | 1021.1 |
| 20260507073103 | 10 | 0 | 0.0 | 0.0 | 0.00 | 0.00 | 0.00 | 86 | 1020.9 |
| 20260507072058 | 10 | 0 | 0.0 | 0.0 | 0.00 | 0.00 | 0.00 | 88 | 1020.9 |
| 20260507071102 | 10 | 0 | 0.0 | 0.0 | 0.00 | 0.00 | 0.00 | 90 | 1020.8 |
| 20260507070057 | 9 | 0 | 0.0 | 0.0 | 0.00 | 0.00 | 0.00 | 92 | 1020.7 |
| 20260507062057 | 8 | 0 | 0.0 | 0.0 | 0.00 | 0.00 | 0.00 | 97 | 1020.5 |
| 20260507061058 | 8 | 0 | 0.0 | 0.0 | 0.00 | 0.00 | 0.00 | 98 | 1020.5 |
| 20260507060056 | 8 | 0 | 0.0 | 0.0 | 0.00 | 0.00 | 0.00 | 98 | 1020.4 |
| 20260507054059 | 7 | 0 | 0.0 | 0.0 | 0.00 | 0.00 | 0.00 | 98 | 1020.2 |
| 20260507053054 | 7 | 0 | 0.0 | 0.0 | 0.00 | 0.00 | 0.00 | 98 | 1020.1 |
| 20260507052057 | 7 | 0 | 0.0 | 0.0 | 0.00 | 0.00 | 0.00 | 98 | 1020.0 |
| 20260507051058 | 7 | 0 | 0.0 | 0.0 | 0.00 | 0.00 | 0.00 | 98 | 1020.0 |
| 20260507050056 | 7 | 0 | 0.0 | 0.0 | 0.00 | 0.00 | 0.00 | 98 | 1019.9 |
| 20260507044058 | 7 | 0 | 0.0 | 0.0 | 0.00 | 0.00 | 0.00 | 98 | 1019.8 |
| 20260507043057 | 7 | 0 | 0.0 | 0.0 | 0.00 | 0.00 | 0.00 | 98 | 1019.7 |
| 20260507042059 | 7 | 0 | 0.0 | 0.0 | 0.00 | 0.00 | 0.00 | 98 | 1019.7 |
| 20260507041056 | 7 | 0 | 0.0 | 0.0 | 0.00 | 0.03 | 0.00 | 98 | 1019.6 |
| 20260507035057 | 7 | 0 | 0.0 | 0.0 | 0.00 | 0.03 | 0.00 | 98 | 1019.5 |
| 20260507034058 | 7 | 0 | 0.0 | 0.0 | 0.00 | 0.03 | 0.00 | 98 | 1019.4 |
| 20260507031059 | 7 | 0 | 0.0 | 0.0 | 0.00 | 0.05 | 0.00 | 97 | 1019.3 |
| 20260507030058 | 7 | 0 | 0.0 | 0.0 | 0.00 | 0.05 | 0.00 | 97 | 1019.3 |
| 20260507025059 | 7 | 0 | 0.0 | 0.0 | 0.00 | 0.05 | 0.00 | 97 | 1019.3 |
| 20260507023058 | 7 | 0 | 0.0 | 0.0 | 0.00 | 0.05 | 0.00 | 97 | 1019.2 |
| 20260507022058 | 7 | 0 | 0.0 | 0.0 | 0.00 | 0.05 | 0.00 | 97 | 1019.1 |
| 20260507021057 | 7 | 0 | 0.0 | 0.0 | 0.00 | 0.05 | 0.00 | 97 | 1019.0 |
| 20260507015057 | 6 | 0 | 0.0 | 0.0 | 0.00 | 0.05 | 0.00 | 96 | 1018.9 |
| 20260507014057 | 6 | 0 | 0.0 | 0.0 | 0.00 | 0.05 | 0.00 | 96 | 1018.8 |
| 20260507013054 | 7 | 0 | 0.0 | 0.0 | 0.00 | 0.05 | 0.00 | 96 | 1018.9 |
| 20260507011058 | 7 | 0 | 0.0 | 0.0 | 0.00 | 0.05 | 0.00 | 96 | 1018.8 |
| 20260507005056 | 7 | 0 | 0.0 | 0.0 | 0.00 | 0.05 | 0.00 | 95 | 1018.8 |
| 20260507003056 | 7 | 0 | 0.0 | 0.0 | 0.00 | 0.08 | 0.00 | 95 | 1018.7 |
| 20260507002057 | 7 | 0 | 0.0 | 0.0 | 0.00 | 0.10 | 0.00 | 94 | 1018.6 |
| 20260507000106 | 6 | 0 | 0.0 | 0.0 | 0.00 | 0.13 | 0.00 | 92 | 1018.5 |
| 20260506235106 | 6 | 0 | 0.0 | 0.0 | 0.00 | 0.15 | 0.00 | 92 | 1018.5 |
| 20260506234106 | 6 | 0 | 0.0 | 0.0 | 0.00 | 0.15 | 0.00 | 93 | 1018.4 |
| 20260506233109 | 6 | 0 | 0.0 | 0.0 | 0.00 | 0.15 | 0.00 | 92 | 1018.3 |
| 20260506232106 | 6 | 0 | 0.0 | 0.0 | 0.00 | 0.18 | 0.00 | 91 | 1018.3 |
| 20260506230107 | 6 | 0 | 0.0 | 0.0 | 0.00 | 0.23 | 0.00 | 90 | 1018.1 |
| 20260506223107 | 7 | 0 | 0.0 | 0.0 | 0.00 | 0.25 | 0.00 | 88 | 1017.9 |
| 20260506222106 | 7 | 0 | 0.0 | 0.0 | 0.00 | 0.28 | 0.00 | 87 | 1017.9 |
| 20260506221109 | 7 | 0 | 0.0 | 0.0 | 0.00 | 0.28 | 0.00 | 86 | 1017.9 |
| 20260506220116 | 8 | 0 | 0.0 | 0.0 | 0.00 | 0.30 | 0.00 | 84 | 1017.9 |
| 20260506214114 | 8 | 0 | 0.0 | 0.0 | 0.00 | 0.33 | 0.30 | 85 | 1018.0 |
| 20260506213112 | 8 | 0 | 0.0 | 0.0 | 0.00 | 0.36 | 0.30 | 85 | 1017.9 |
| 20260506212112 | 8 | 0 | 0.0 | 0.0 | 0.00 | 0.36 | 0.30 | 85 | 1017.9 |
| 20260506211112 | 8 | 0 | 0.0 | 0.0 | 0.00 | 0.38 | 0.30 | 84 | 1017.8 |
| 20260506210112 | 8 | 0 | 0.0 | 0.0 | 0.00 | 0.41 | 0.30 | 82 | 1017.7 |
| 20260506205113 | 9 | 0 | 0.0 | 0.0 | 0.00 | 0.41 | 0.30 | 82 | 1017.7 |
| 20260506203114 | 10 | 0 | 0.0 | 0.0 | 0.00 | 0.41 | 0.30 | 79 | 1017.5 |
| 20260506202116 | 10 | 0 | 0.0 | 0.0 | 0.00 | 0.43 | 0.30 | 77 | 1017.4 |
| 20260506201117 | 10 | 0 | 0.0 | 0.0 | 0.00 | 0.43 | 0.30 | 76 | 1017.3 |
| 20260506200112 | 10 | 0 | 0.0 | 0.0 | 0.00 | 0.43 | 0.30 | 74 | 1017.1 |
| 20260506194115 | 11 | 0 | 0.0 | 0.0 | 0.00 | 0.43 | 0.30 | 76 | 1017.0 |
| 20260506193116 | 11 | 0 | 0.0 | 0.0 | 0.00 | 0.43 | 0.30 | 79 | 1016.9 |
| 20260506191112 | 11 | 0 | 0.0 | 0.0 | 0.00 | 0.43 | 0.30 | 82 | 1016.6 |
| 20260506190113 | 11 | 0 | 0.0 | 0.0 | 0.00 | 0.46 | 0.30 | 80 | 1016.4 |
| 20260506185113 | 11 | 0 | 0.0 | 0.0 | 0.00 | 0.46 | 0.30 | 79 | 1016.3 |
| 20260506182113 | 11 | 0 | 0.0 | 0.0 | 0.00 | 0.46 | 0.30 | 79 | 1016.0 |
| 20260506180110 | 11 | 0 | 0.0 | 0.0 | 0.00 | 0.46 | 0.30 | 79 | 1015.7 |
| 20260506175110 | 11 | 0 | 0.0 | 0.0 | 0.00 | 0.46 | 0.30 | 81 | 1015.7 |
| 20260506174107 | 11 | 0 | 0.0 | 0.0 | 0.00 | 0.46 | 0.30 | 80 | 1015.4 |
| 20260506173106 | 12 | 0 | 0.0 | 0.0 | 0.00 | 0.46 | 0.30 | 79 | 1015.3 |
| 20260506171108 | 12 | 0 | 0.0 | 0.0 | 0.00 | 0.46 | 0.30 | 79 | 1015.2 |
| 20260506163105 | 11 | 0 | 0.0 | 0.0 | 0.00 | 0.46 | 0.30 | 79 | 1015.2 |
| 20260506162108 | 11 | 0 | 0.0 | 0.0 | 0.00 | 0.46 | 0.30 | 79 | 1015.1 |
| 20260506161105 | 11 | 0 | 0.0 | 0.0 | 0.00 | 0.46 | 0.30 | 79 | 1015.2 |
| 20260506155104 | 12 | 0 | 0.0 | 0.0 | 0.00 | 0.46 | 0.30 | 78 | 1015.1 |
| 20260506154110 | 12 | 0 | 0.0 | 0.0 | 0.00 | 0.46 | 0.30 | 79 | 1015.1 |
| 20260506153104 | 12 | 0 | 0.0 | 0.0 | 0.00 | 0.46 | 0.30 | 80 | 1015.1 |
| 20260506152102 | 12 | 0 | 0.0 | 0.0 | 0.00 | 0.46 | 0.30 | 79 | 1015.0 |
| 20260506151105 | 13 | 0 | 0.0 | 0.0 | 0.00 | 0.46 | 0.30 | 78 | 1015.0 |
| 20260506150104 | 13 | 0 | 0.0 | 0.0 | 0.00 | 0.46 | 0.30 | 77 | 1014.9 |
| 20260506145104 | 13 | 0 | 0.0 | 0.0 | 0.00 | 0.46 | 0.30 | 76 | 1014.9 |
| 20260506144101 | 13 | 0 | 0.0 | 0.0 | 0.00 | 0.46 | 0.30 | 75 | 1014.7 |
| 20260506142103 | 13 | 0 | 0.0 | 0.0 | 0.00 | 0.46 | 0.30 | 79 | 1014.7 |
| 20260506140110 | 13 | 0 | 0.0 | 0.0 | 0.00 | 0.46 | 0.30 | 77 | 1014.8 |
| 20260506135103 | 13 | 0 | 0.0 | 0.0 | 0.00 | 0.46 | 0.30 | 79 | 1014.9 |
| 20260506133103 | 13 | 0 | 0.0 | 0.0 | 0.00 | 0.46 | 0.30 | 77 | 1014.8 |
| 20260506132102 | 13 | 0 | 0.0 | 0.0 | 0.00 | 0.46 | 0.30 | 78 | 1014.9 |
| 20260506131103 | 13 | 0 | 0.0 | 0.0 | 0.00 | 0.46 | 0.30 | 80 | 1014.8 |
| 20260506125101 | 12 | 0 | 0.0 | 0.0 | 0.00 | 0.46 | 0.30 | 79 | 1014.7 |
| 20260506124100 | 12 | 0 | 0.0 | 0.0 | 0.00 | 0.46 | 0.30 | 85 | 1014.7 |
| 20260506123104 | 12 | 0 | 0.0 | 0.0 | 0.00 | 0.46 | 0.30 | 86 | 1014.7 |
| 20260506115059 | 11 | 0 | 0.0 | 0.0 | 0.00 | 0.46 | 0.30 | 88 | 1014.7 |